Location: Augustenthal
(51.7167°N, 10.2833°E)
Time: 22:25:08
(UTC+00:00)

Cosmos 1937 Rocket - Pass Details

Date: 18 May 2021
Orbit: 745 x 781 km, 74.0° (Epoch: 24 June)

Event Time Altitude Azimuth Distance (km) Brightness Sun altitude
Exits shadow 20:59:00 - 202° (SSW) 3,181 6.4 -12.6°
Reaches altitude 10° 21:01:20 10° 203° (SSW) 2,265 5.6 -12.8°
Maximum altitude 21:06:29 89° 121° (ESE) 761 3.5 -13.2°
Drops below altitude 10° 21:11:42 10° 25° (NNE) 2,301 6.5 -13.6°
Sets 21:14:06 0° 26° (NNE) 3,236 7.3 -13.8°
